[[{"header":{"parameterUnit":"m.s-1","parameterCategory":1,"la1":30.2991,"la2":30.254,"lo1":-89.0895,"lo2":-89.0444,"dy":0.0017,"dx":0.0017,"nx":28,"ny":28,"refTime":"2024-11-22T03:00:00:Z","depth":0,"parameterNumber":2,"parameterNumberName":"U-component_of_WINDS"},"data":[0,0,0,0,0,0,0,0,0,0,0,0,0,0,0,0,0,0,0,0,0,0,0,0,0,0,0,0,0,0,0,0,0,0,0,0,0,0,0,0,0,0,0,0,0,0,0,0,0,0,0,0,0,0,0,0,0,0,4.3902,4.3904,0,4.4089,4.4092,4.4094,4.4013,4.4009,4.4004,4.4,4.4197,4.4206,4.4215,0,0,0,0,0,0,0,0,0,0,0,0,0,4.348,4.3489,4.3902,4.3905,4.3907,4.4089,4.4092,4.4094,4.4014,4.4009,4.4003,4.3998,4.4194,4.4205,4.4216,0,0,0,0,0,0,0,0,0,0,0,0,0,4.3665,4.3491,4.3902,4.3889,4.3889,4.4089,4.4092,4.4095,4.4015,4.4008,4.4002,4.3995,4.419,4.4204,4.4218,4.4442,0,0,4.4261,4.4267,0,0,0,0,0,0,0,0,4.3655,4.3681,4.3888,4.389,4.3891,4.4021,4.4015,4.4212,4.4017,4.3968,4.4,4.3992,4.4144,4.4162,4.4212,4.4451,4.446,4.4262,4.4271,4.4277,4.4281,0,0,0,0,0,0,0,4.3642,4.3673,4.3976,4.3892,4.3893,4.3875,4.3894,4.4052,4.4092,4.3972,4.3966,4.3989,4.4144,4.4198,4.4216,4.4463,4.4262,4.4275,4.4283,4.4289,4.4896,4.4903,0,0,0,0,0,0,4.3629,4.3662,4.397,4.3982,4.3754,4.3888,4.3909,4.3986,4.409,4.4099,4.3995,4.3985,4.4177,4.4199,4.4223,4.4492,4.4277,4.429,4.4299,4.4889,4.4898,4.4906,0,0,0,0,0,0,4.362,4.3657,4.3963,4.3821,4.3858,4.3903,4.399,4.3994,4.4048,4.4108,4.4115,4.4043,4.4173,4.4203,4.4388,4.4498,4.4297,4.431,4.488,4.4891,4.4902,4.5033,0,0,0,0,0,0,4.3608,4.3654,4.3739,4.3823,4.3866,4.4124,4.3997,4.4002,4.4072,4.4061,4.4155,4.4164,4.417,4.4367,4.4402,4.4514,4.4321,4.487,4.4885,4.4898,4.5019,4.5048,4.5072,0,0,0,0,0,4.3593,4.377,4.3744,4.3781,4.3973,4.4131,4.4155,4.4157,4.4081,4.4168,4.4206,4.4161,4.448,4.4387,4.4425,4.4543,4.4863,4.4881,4.4897,4.5007,4.5042,4.5071,0,0,0,0,0,0,4.3699,4.378,4.3753,4.3961,4.4039,4.4117,4.4225,4.4194,4.4297,4.4282,4.4281,4.4303,4.4495,4.4537,4.4432,4.4766,4.466,4.4686,4.4731,4.4764,4.479,4.4776,4.4333,0,0,0,0,0,4.3746,4.3866,4.3931,4.4109,4.4149,4.4181,4.425,4.4244,4.4326,4.4359,4.4411,4.4494,4.4612,4.4691,4.4803,4.5025,4.5045,4.5125,4.5151,4.5173,4.5195,4.5316,4.5352,4.4962,4.4962,4.4962,0,0,4.3846,4.3905,4.3981,4.4132,4.4191,4.4317,4.4209,4.4347,4.444,4.4381,4.4558,4.4599,4.4691,4.4896,4.4989,4.4938,4.5307,4.5195,4.5211,4.5222,4.5337,4.5374,4.5407,4.4974,4.4972,4.497,0,0,4.409,4.4147,4.4301,4.4363,4.4455,4.4474,4.4512,4.4594,4.4619,4.4796,4.4754,4.4866,4.5071,4.5138,4.5199,4.547,4.5433,4.5507,4.5645,4.5762,4.5793,4.582,4.5917,4.5951,4.5529,4.5529,4.5529,0,4.4203,4.4388,4.4385,4.4525,4.4593,4.4543,4.47,4.4761,4.4886,4.4935,4.4875,4.5131,4.5189,4.5409,4.5475,4.5526,4.5569,4.5496,4.5788,4.5816,4.5841,4.5933,4.597,4.5537,4.5537,4.5536,4.5535,0,4.4522,4.4652,4.4765,4.4885,4.4966,4.5114,4.5134,4.5217,4.5205,4.5231,4.5413,4.5482,4.5607,4.5659,4.5649,4.5878,4.5843,4.5787,4.568,4.5887,4.5973,4.6009,4.555,4.5546,4.5544,4.5542,0,0,4.4839,4.4954,4.4996,4.5049,4.5147,4.5248,4.5394,4.5515,4.5586,4.5674,4.5797,4.5972,4.592,4.5989,4.5986,4.609,4.63,4.602,4.6022,4.607,4.6556,4.6598,4.6639,4.6275,4.6282,4.6287,4.6548,0,4.5091,4.5345,4.5346,4.5582,4.5702,4.5656,4.5784,4.5858,4.5887,4.5995,4.6027,4.615,4.6072,4.6114,4.6214,4.6253,4.6397,4.6234,4.6391,4.6397,4.6369,4.6684,4.6729,4.6972,4.6582,4.6588,4.6592,0,4.5419,4.5515,4.5762,4.5842,4.5892,4.6007,4.6118,4.622,4.6305,4.6318,4.6396,4.6377,4.6528,4.6417,4.6625,4.6514,4.6578,4.6607,4.6617,4.6632,4.6507,4.6707,4.7049,4.7086,4.6645,4.6641,4.6637,0,4.5625,4.5817,4.5989,4.6037,4.6134,4.6216,4.626,4.6337,4.641,4.6508,4.6555,4.667,4.6733,4.6823,4.6836,4.6754,4.7046,4.6936,4.7062,4.7062,4.7125,4.7121,4.7482,4.7168,4.7167,4.7166,4.7166,0,4.5907,4.6059,4.6083,4.6189,4.6359,4.636,4.6529,4.6567,4.6636,4.675,4.6718,4.6826,4.6837,4.6949,4.6961,4.7131,4.716,4.7176,4.7177,4.7179,4.7177,4.7221,4.7205,4.7176,4.7174,4.7172,4.717,0,4.6166,4.6188,4.6372,4.6449,4.6472,4.6594,4.666,4.6762,4.6787,4.6932,4.6966,4.7006,4.7136,4.7158,4.7312,4.7319,4.7523,4.7508,4.7494,4.7492,4.7617,4.7605,4.8019,4.8074,4.7724,4.7727,4.773,0,4.6344,4.646,4.6548,4.6621,4.667,4.6788,4.6861,4.6867,4.6945,4.7049,4.7139,4.7265,4.7366,4.7576,4.762,4.7737,4.7724,4.7861,4.7741,4.7739,4.7726,4.7719,4.773,4.7884,4.7888,4.7891,4.7893,0,4.6657,4.6662,4.6768,4.6879,4.6967,4.7055,4.7138,4.72,4.7217,4.7307,4.7437,4.7516,4.7671,4.7797,4.7914,4.7961,4.7931,4.7931,4.7966,4.7969,4.7956,4.7964,4.7557,4.7921,4.7918,4.7916,4.7915,4.7914,4.6882,4.6982,4.706,4.718,4.7242,4.7321,4.742,4.7457,4.7566,4.7692,4.7689,4.7833,4.7914,4.8067,4.8123,4.8236,4.8192,4.8244,4.8257,4.8269,4.8281,4.7938,4.8258,4.8257,4.8256,4.8256,4.8255,0,4.7193,4.7241,4.7351,4.7467,4.7561,4.7522,4.7612,4.7694,4.7821,4.7899,4.7998,4.8149,4.8271,4.8325,4.8445,4.8526,4.8515,4.8557,4.8551,4.8563,4.8314,4.8271,4.8564,4.8564,4.8564,4.8563,4.8563,4.8563,4.7367,4.7535,4.7549,4.7749,4.7796,4.7935,4.799,4.8063,4.8124,4.8294,4.8394,4.8427,4.8496,4.8621,4.8731,4.8744,4.879,4.8838,4.8845,4.8611,4.858,4.855,4.851,4.8848,4.8849,4.9084,4.9086,4.9088]},{"header":{"parameterUnit":"m.s-1","parameterCategory":1,"la1":30.2991,"la2":30.254,"lo1":-89.0895,"lo2":-89.0444,"dy":0.0017,"dx":0.0017,"nx":28,"ny":28,"refTime":"2024-11-22T03:00:00:Z","depth":0,"parameterNumber":3,"parameterNumberName":"V-component_of_WINDS"},"data":[0,0,0,0,0,0,0,0,0,0,0,0,0,0,0,0,0,0,0,0,0,0,0,0,0,0,0,0,0,0,0,0,0,0,0,0,0,0,0,0,0,0,0,0,0,0,0,0,0,0,0,0,0,0,0,0,0,0,-1.9096,-1.9098,0,-1.9261,-1.9263,-1.9265,-1.9265,-1.9263,-1.926,-1.9258,-1.943,-1.9437,-1.9443,0,0,0,0,0,0,0,0,0,0,0,0,0,-1.8785,-1.879,-1.9096,-1.9098,-1.91,-1.9261,-1.9263,-1.9265,-1.9265,-1.9263,-1.926,-1.9257,-1.9428,-1.9436,-1.9444,0,0,0,0,0,0,0,0,0,0,0,0,0,-1.8932,-1.8792,-1.9096,-1.9119,-1.9123,-1.926,-1.9263,-1.9266,-1.9266,-1.9262,-1.9259,-1.9256,-1.9426,-1.9435,-1.9445,-1.957,0,0,-1.9475,-1.9479,0,0,0,0,0,0,0,0,-1.8924,-1.8943,-1.9114,-1.9118,-1.9123,-1.9239,-1.9216,-1.9368,-1.9267,-1.9212,-1.9258,-1.9255,-1.9369,-1.9384,-1.9422,-1.9578,-1.9586,-1.9476,-1.9482,-1.9486,-1.9489,0,0,0,0,0,0,0,-1.8913,-1.8936,-1.9162,-1.9116,-1.9122,-1.9123,-1.914,-1.9245,-1.9307,-1.9216,-1.9217,-1.9236,-1.9371,-1.9412,-1.9426,-1.9588,-1.9476,-1.9484,-1.949,-1.9494,-1.9857,-1.9861,0,0,0,0,0,0,-1.8898,-1.8928,-1.9156,-1.9166,-1.9013,-1.9131,-1.9151,-1.9205,-1.9306,-1.9318,-1.9239,-1.9235,-1.9397,-1.9414,-1.9432,-1.9586,-1.9486,-1.9495,-1.9501,-1.9854,-1.9858,-1.9862,0,0,0,0,0,0,-1.8891,-1.8918,-1.915,-1.9047,-1.9077,-1.914,-1.9201,-1.921,-1.9251,-1.9322,-1.9334,-1.9269,-1.9395,-1.9418,-1.9536,-1.9592,-1.95,-1.9509,-1.9849,-1.9855,-1.986,-1.9895,0,0,0,0,0,0,-1.8882,-1.8916,-1.8963,-1.9048,-1.9082,-1.925,-1.9204,-1.9215,-1.9268,-1.9265,-1.9354,-1.9366,-1.9394,-1.9521,-1.9546,-1.9604,-1.9516,-1.9845,-1.9852,-1.9858,-1.989,-1.9902,-1.9912,0,0,0,0,0,-1.8871,-1.8967,-1.8966,-1.8993,-1.9143,-1.9253,-1.9273,-1.9303,-1.9272,-1.9321,-1.9367,-1.9363,-1.9582,-1.9533,-1.9561,-1.9623,-1.9841,-1.985,-1.9858,-1.9885,-1.9899,-1.9911,0,0,0,0,0,0,-1.8888,-1.8979,-1.8978,-1.9104,-1.9171,-1.9253,-1.9315,-1.9317,-1.9395,-1.9389,-1.9425,-1.9445,-1.9563,-1.9605,-1.9549,-1.975,-1.9708,-1.9722,-1.9719,-1.9733,-1.9744,-1.9732,-1.9525,0,0,0,0,0,-1.8906,-1.8987,-1.9062,-1.9167,-1.92,-1.9252,-1.9301,-1.9319,-1.939,-1.9418,-1.9473,-1.9543,-1.9627,-1.9683,-1.9764,-1.9895,-1.9916,-1.9952,-1.9963,-1.9972,-1.9984,-2.0058,-2.0075,-1.989,-1.989,-1.9889,0,0,-1.8945,-1.9005,-1.9054,-1.9171,-1.9225,-1.931,-1.9276,-1.9366,-1.943,-1.9432,-1.9547,-1.959,-1.967,-1.9795,-1.9853,-1.9834,-2.004,-1.9982,-1.9989,-1.9997,-2.0068,-2.0086,-2.0101,-1.9895,-1.9894,-1.9893,0,0,-1.9059,-1.9112,-1.9205,-1.9259,-1.934,-1.9375,-1.9397,-1.9479,-1.9507,-1.9623,-1.9627,-1.9703,-1.9848,-1.9905,-1.9953,-2.009,-2.0089,-2.0115,-2.0174,-2.0245,-2.026,-2.0273,-2.0323,-2.034,-2.0127,-2.0127,-2.0127,0,-1.9097,-1.9223,-1.9252,-1.9343,-1.9396,-1.9401,-1.9496,-1.9548,-1.9652,-1.9689,-1.9665,-1.9848,-1.9902,-2.0042,-2.0075,-2.0113,-2.0141,-2.0106,-2.0255,-2.0269,-2.0282,-2.0329,-2.0348,-2.013,-2.013,-2.0129,-2.0129,0,-1.9267,-1.9355,-1.942,-1.952,-1.958,-1.9672,-1.9716,-1.9773,-1.9786,-1.9823,-1.9941,-2.0006,-2.0102,-2.0136,-2.015,-2.0278,-2.0264,-2.0247,-2.0206,-2.0301,-2.0347,-2.0366,-2.0134,-2.0133,-2.0132,-2.0132,0,0,-1.9397,-1.9511,-1.9535,-1.9581,-1.9671,-1.974,-1.9833,-1.9926,-1.9975,-2.0047,-2.0127,-2.025,-2.0235,-2.029,-2.031,-2.0372,-2.0478,-2.0349,-2.0351,-2.0371,-2.0625,-2.0637,-2.0658,-2.0478,-2.0481,-2.0484,-2.0619,0,-1.9521,-1.9686,-1.9715,-1.9859,-1.9941,-1.9948,-2.0029,-2.0094,-2.0132,-2.0208,-2.0249,-2.0336,-2.0309,-2.0343,-2.0405,-2.0452,-2.0529,-2.0442,-2.0554,-2.0558,-2.0534,-2.0682,-2.0695,-2.0819,-2.0637,-2.064,-2.0642,0,-1.9688,-1.9764,-1.9916,-1.9996,-2.0032,-2.0104,-2.0192,-2.0264,-2.0339,-2.0361,-2.0422,-2.0435,-2.0534,-2.0487,-2.0624,-2.0564,-2.0612,-2.0642,-2.0647,-2.066,-2.0606,-2.0699,-2.0859,-2.0878,-2.067,-2.0668,-2.0666,0,-1.9769,-1.9909,-2.0018,-2.0057,-2.0153,-2.0204,-2.0246,-2.0318,-2.0372,-2.0449,-2.0484,-2.0572,-2.0621,-2.0689,-2.0726,-2.0688,-2.0861,-2.0817,-2.0884,-2.0883,-2.0921,-2.0918,-2.1091,-2.095,-2.0949,-2.0949,-2.0948,0,-1.9905,-1.9999,-2.0056,-2.0123,-2.0228,-2.0261,-2.0365,-2.0407,-2.047,-2.0547,-2.0558,-2.063,-2.0673,-2.0752,-2.0782,-2.0892,-2.0913,-2.0936,-2.0942,-2.0935,-2.0933,-2.0968,-2.096,-2.0954,-2.0953,-2.0952,-2.0951,0,-2.0014,-2.0055,-2.0175,-2.0256,-2.0278,-2.0352,-2.0422,-2.0489,-2.0525,-2.0623,-2.0647,-2.0706,-2.0799,-2.0842,-2.0958,-2.0978,-2.1103,-2.1104,-2.1078,-2.1081,-2.1146,-2.114,-2.1349,-2.1379,-2.1216,-2.1217,-2.1219,0,-2.0098,-2.017,-2.0258,-2.031,-2.0354,-2.0437,-2.0492,-2.0527,-2.0584,-2.0675,-2.0731,-2.0824,-2.0901,-2.105,-2.1104,-2.1193,-2.1197,-2.1264,-2.121,-2.1201,-2.1199,-2.1195,-2.1203,-2.1274,-2.1275,-2.1277,-2.1278,0,-2.0245,-2.0262,-2.034,-2.0426,-2.0491,-2.0561,-2.063,-2.0672,-2.0718,-2.0782,-2.0877,-2.0937,-2.1055,-2.1148,-2.1241,-2.1286,-2.1291,-2.1294,-2.1314,-2.1308,-2.1291,-2.1303,-2.1106,-2.1289,-2.1288,-2.1287,-2.1287,-2.1286,-2.0345,-2.041,-2.0482,-2.0569,-2.0624,-2.0688,-2.0754,-2.0799,-2.0879,-2.0977,-2.0993,-2.1095,-2.1169,-2.1293,-2.1342,-2.1423,-2.1407,-2.1436,-2.1444,-2.1451,-2.1456,-2.1277,-2.144,-2.1439,-2.1439,-2.1439,-2.1439,0,-2.0493,-2.054,-2.0619,-2.0715,-2.0784,-2.078,-2.0856,-2.0914,-2.1003,-2.1071,-2.1146,-2.1256,-2.1347,-2.1407,-2.15,-2.1553,-2.1558,-2.1576,-2.1573,-2.1584,-2.1464,-2.1437,-2.1571,-2.1571,-2.1571,-2.1571,-2.1571,-2.1571,-2.0578,-2.0688,-2.0713,-2.085,-2.0897,-2.0996,-2.1039,-2.1099,-2.1153,-2.1275,-2.135,-2.1388,-2.1454,-2.1551,-2.1635,-2.165,-2.1685,-2.1704,-2.1719,-2.1606,-2.1592,-2.1579,-2.1554,-2.1711,-2.1711,-2.1833,-2.1834,-2.1835]}]]